Location: Dvur Kralove nad Labem
(50.4330°N, 15.8170°E)
Time: 06:13:16
(UTC+02:00)

ISS - Visible Passes

Search period start: 23 July 2018 00:00
Search period end: 02 August 2018 00:00
Orbit: 402 x 408 km, 51.6° (Epoch: 23 July)

Date Brightness Start Highest point End Pass type
(mag) Time Alt. Az. Time Alt. Az. Time Alt. Az.
23 Jul -3.9 01:16:39 10° WNW 01:19:57 86° NNE 01:20:53 44° E visible
23 Jul -1.3 02:53:18 10° W 02:53:22 10° W 02:53:22 10° W visible
23 Jul -3.8 22:47:55 10° WSW 22:51:12 85° N 22:54:30 10° ENE visible
24 Jul -3.7 00:24:31 10° W 00:27:48 74° N 00:29:11 32° E visible
24 Jul -1.6 02:01:04 10° W 02:01:47 15° W 02:01:47 15° W visible
24 Jul -3.9 21:55:48 10° WSW 21:59:04 75° SSE 22:02:22 10° ENE visible
24 Jul -3.6 23:32:21 10° W 23:35:38 69° N 23:38:13 15° E visible
25 Jul -2.6 01:08:54 10° WNW 01:10:49 31° W 01:10:49 31° W visible
25 Jul -3.6 22:40:10 10° W 22:43:27 71° N 22:46:45 10° E visible
26 Jul -4.0 00:16:45 10° WNW 00:20:03 87° SSW 00:20:04 87° S visible
26 Jul -3.7 21:47:59 10° W 21:51:16 80° N 21:54:34 10° ENE visible
26 Jul -3.8 23:24:36 10° WNW 23:27:53 77° N 23:29:23 29° E visible
27 Jul -1.5 01:01:09 10° W 01:02:01 16° W 01:02:01 16° W visible
27 Jul -3.6 22:32:24 10° W 22:35:41 70° N 22:38:47 11° E visible
28 Jul -3.1 00:08:56 10° WNW 00:11:24 43° WSW 00:11:24 43° WSW visible
28 Jul -3.5 21:40:11 10° W 21:43:27 69° N 21:46:45 10° E visible
28 Jul -4.0 23:16:45 10° WNW 23:20:02 80° SSW 23:20:49 49° ESE visible
29 Jul -3.8 22:24:33 10° WNW 22:27:50 82° N 22:30:16 17° E visible
30 Jul -2.1 00:01:09 10° W 00:02:53 24° WSW 00:02:53 24° WSW visible
30 Jul -3.6 21:32:20 10° W 21:35:36 71° N 21:38:53 10° E visible
30 Jul -3.6 23:08:52 10° WNW 23:12:03 50° SSW 23:12:21 48° S visible
31 Jul -3.9 22:16:37 10° WNW 22:19:54 72° SSW 22:21:50 22° ESE visible
31 Jul -1.4 23:53:35 10° W 23:54:29 14° WSW 23:54:29 14° WSW visible
01 Aug -3.8 21:24:23 10° WNW 21:27:40 88° N 21:30:58 10° ESE visible
01 Aug -2.7 23:01:03 10° W 23:03:57 29° SSW 23:03:59 29° SSW visible
